Regional Weather Roundup
Issued by NWS

Home | Current Version | Previous Version | Text Only | Print | Product List | Glossary Off
Versions: 1 2 3 4 5 6 7 8 9 10 11 12 13 14 15 16 17 18 19 20 21 22 23 24 25 26 27 28 29 30 31 32 33 34 35 36 37 38 39 40 41 42 43 44 45 46 47 48 49 50

000
ASUS43 KDMX 012107
RWRIA

WEATHER ROUNDUP FOR IOWA
NATIONAL WEATHER SERVICE DES MOINES IA
400 PM CDT WED JUL 01 2015

NOTE: "FAIR" INDICATES FEW OR NO CLOUDS BELOW 12,000 FEET WITH NO
SIGNIFICANT WEATHER AND/OR OBSTRUCTIONS TO VISIBILITY.

* - THESE STATIONS ARE NOT NWS STATIONS...THUS NOT UNDER NWS
QUALITY CONTROL.  THEY ALSO DO NOT REPORT WEATHER SUCH
AS PRECIPITATION OR FOG.

IAZ001>003-012>014-020>022-031>034-043>046-012200-
   NORTHWEST IOWA

CITY           SKY/WX    TMP DP  RH WIND       PRES   REMARKS
CARROLL *      CLOUDY    72  64  78 E12       29.92F
CHEROKEE *     MOSUNNY   75  64  69 E12       29.94S
DENISON *      PTSUNNY   72  66  83 E9        29.91S
LE MARS *      PTSUNNY   75  66  73 E7G16     29.93S
ORANGE CITY *  PTSUNNY   72  63  73 E8        29.94S
SHELDON *      MOSUNNY   73  68  83 E14       29.93F
SIOUX CITY     PTSUNNY   76  66  71 E13       29.90S
SPENCER        PTSUNNY   74  51  44 SE13G20   29.96F
STORM LAKE *   SUNNY     73  63  68 E15       29.95S
$$

IAZ055>058-069>071-079>083-090>094-012200-
   SOUTHWEST IOWA

CITY           SKY/WX    TMP DP  RH WIND       PRES   REMARKS
ATLANTIC *     PTSUNNY   77  70  78 NE12      29.89F
AUDUBON *      SUNNY     75  68  78 E10       29.93S
CLARINDA *     MOSUNNY   84  72  65 VRB7      29.87S HX  89
COUNCIL BLFS * MOSUNNY   81  70  69 E12       29.88S HX  84
CRESTON *      PTSUNNY   77  68  73 NE9       29.90S
HARLAN  *      PTSUNNY   77  73  88 E9G15     29.94R
LAMONI         CLOUDY    78  70  76 VRB3      29.89S HX  80
RED OAK *      PTSUNNY   82  72  69 E9        29.87S HX  87
SHENANDOAH *   MOSUNNY   84  73  70 E12G17    29.85S HX  91
$$

IAZ047>049-059>061-072>074-084-012200-
   CENTRAL IOWA

CITY           SKY/WX    TMP DP  RH WIND       PRES   REMARKS
AMES           PTSUNNY   74  60  61 NE9       29.92F
ANKENY *       PTSUNNY   73  64  73 E8        29.92S
CHARITON *     PTSUNNY   75  68  78 NE12      29.90S
DES MOINES     CLOUDY    74  62  66 E9        29.91F
GRINNELL*      MOSUNNY   73  61  64 NE13      29.94S
KNOXVILLE *    CLOUDY    73  63  68 NE9       29.91R
MARSHALLTOWN   MOSUNNY   72  57  59 NE10      29.94F
PELLA *        PTSUNNY   73  66  77 E6        29.92S
PERRY *        CLOUDY    72  63  73 E10       29.92F
$$

IAZ004>006-015-016-023>025-035-036-012200-
   NORTH CENTRAL IOWA

CITY           SKY/WX    TMP DP  RH WIND       PRES   REMARKS
ALGONA *       MOSUNNY   70  54  56 E9        29.98S
CLARION *      SUNNY     68  57  68 E12       29.97S
ESTHERVILLE    CLOUDY    71  54  54 SE10      29.98S
FORT DODGE *   PTSUNNY   70  57  64 E14       29.96S
MASON CITY     CLOUDY    65  56  72 E7        30.00S
FOREST CITY *  MOSUNNY   64  54  68 E6        29.99S
IOWA FALLS *   PTSUNNY   68  55  64 E9        29.98R
$$

IAZ007>011-017>019-026>030-037>042-050>054-066-012200-
   NORTHEAST IOWA

CITY           SKY/WX    TMP DP  RH WIND       PRES   REMARKS
CEDAR RAPIDS   CLOUDY    72  59  63 NE10      29.94F
CHARLES CITY * MOSUNNY   64  57  77 NE6       30.00S
CLINTON *      PTSUNNY   72  57  60 NE9       29.97R
DECORAH *        N/A    N/A N/A N/A MISG        N/A
DUBUQUE        CLOUDY    66  54  65 NE6       29.97R
MONTICELLO *   SUNNY     68  68 100 NE8       29.96S
OELWEIN *        N/A     66  55  68 E6        29.99R
WATERLOO       CLOUDY    65  56  72 NE10      29.96F
$$

IAZ064-065-067-068-078-012200-
   EAST CENTRAL IOWA

CITY           SKY/WX    TMP DP  RH WIND       PRES   REMARKS
DAVENPORT      PTSUNNY   74  59  59 NE9       29.94R
IOWA CITY      PTSUNNY   73  60  63 NE10      29.95S
MT. PLEASANT * CLOUDY    77  63  61 NE13      29.91S
MUSCATINE *    SUNNY     75  63  64 NE12      29.94S
QUAD CITIES    CLOUDY    72  60  66 E8        29.93R
$$

IAZ062-063-075>077-085>089-095>099-012200-
   SOUTHEAST IOWA

CITY           SKY/WX    TMP DP  RH WIND       PRES   REMARKS
BURLINGTON     CLOUDY    76  67  73 NE12      29.90R
FAIRFIELD *    PTSUNNY   73  64  73 NE14      29.91S
FORT MADISON * CLOUDY    73  70  88 NE3       29.90F
KEOKUK *       PTSUNNY   77  70  78 NE9       29.88S
OSKALOOSA *    CLOUDY    72  63  73 NE8       29.92R
CENTERVILLE *  MOSUNNY   77  68  73 NE6       29.90S
OTTUMWA        PTSUNNY   74  66  76 NE12      29.89F
WASHINGTON *   MOSUNNY   75  64  69 NE13      29.94S
$$

ABBREVIATIONS USED IN REMARKS
   TC - TEMPERATURES IN CELSIUS
  WCI - WIND CHILL INDEX
   HX - HEAT INDEX
  VSB - VISIBILITY
$$




USA.gov is the U.S. government's official web portal to all federal, state and local government web resources and services.